STARLINK-3096 (49131 NORAD) Tracking and Keplerian Element Data

This shows tracking and keplerian element data for the satellite.

Feedback or suggestion? Click here.




ElementValue
Catalog49131
NameSTARLINK-3096
Epoch Orbit498
Epoch Day288.25002315
Epoch Year2021
RAAN39.4045
Inclination70
Eccentricity0.0003322
Argument of Perigee282.3091
Mean Anonmoly220.7466
Mean Motion15.69751335
Decay Rate-7.765E-05
L11 49131U 21082B 21288.25002315 -.00007765 00000-0 -63324-4 0 9999
L22 49131 70.0000 39.4045 0003322 282.3091 220.7466 15.69751335 4980

Live tracking and technical data element details for STARLINK-3096 (NORAD 49131). STARLINK-3096 can be tracked NOW for your location showing map with azimuth and elevation plus other details from your city location.

Track the satellite on the map from your city or location and see movement details for azimuth, elevation, latitude, longitude, range, height, and movement on the map or in text.







IsCatalogInMostPopularTable: catalog: 49131, numindb: 6
Update: records affected: 1



GetName: 49131 STARLINK-3096

Hit Count: updated at: Sun, 17 Oct 2021 09:21:52 GMT